Regional Weather Roundup
Issued by NWS

Home | Current Version | Previous Version | Text Only | Print | Product List | Glossary Off
Versions: 1 2 3 4 5 6 7 8 9 10 11 12 13 14 15 16 17 18 19 20 21 22 23 24 25 26 27 28 29 30 31 32

000
ASUS45 KGTF 191010
RWRMT
MONTANA HOURLY WEATHER ROUNDUP
NATIONAL WEATHER SERVICE GREAT FALLS MT
400 AM MDT SUN APR 19 2015

NOTE: "FAIR" INDICATES FEW OR NO CLOUDS BELOW 12000 FEET WITH NO
SIGNIFICANT WEATHER AND/OR OBSTRUCTIONS TO VISIBILITY.

MTZ001>007-043-191100-
WEST OF THE DIVIDE

CITY           SKY/WX    TMP DP  RH WIND       PRES   REMARKS
KALISPELL      FAIR      36  27  69 N3        30.20S
MISSOULA       FAIR      41  26  55 SE16      30.22R
BUTTE          FAIR      25  21  85 CALM      30.24F
DEER LODGE       N/A     25  19  80 CALM      30.29S
EUREKA           N/A     34  25  69 N3        30.22S
HAMILTON         N/A     34  23  64 SE3       30.19R
LIBBY            N/A     30  25  80 SE3       30.21R
$$

MTZ008-052>055-191100-
SOUTHWEST MONTANA

CITY           SKY/WX    TMP DP  RH WIND       PRES   REMARKS
BOZEMAN        CLOUDY    31  25  78 CALM      30.27S
DILLON         FAIR      31  24  75 E10       30.22S WCI  22
$$

MTZ009-010-012-014-046-048-049-054-191100-
EAST SLOPES AND CENTRAL MONTANA

CITY           SKY/WX    TMP DP  RH WIND       PRES   REMARKS
CUT BANK       FAIR      26  21  81 W5        30.27F
GREAT FALLS    CLOUDY    33  30  88 SW5       30.26F
MALMSTROM AFB  MOCLDY    35  32  90 W3        30.27S
HELENA         MOCLDY    35  26  69 SW3       30.27S
$$

MTZ011-013-016-021-045-047-050-051-191100-
NORTH CENTRAL MONTANA

CITY           SKY/WX    TMP DP  RH WIND       PRES   REMARKS
HAVRE          FAIR      25  19  78 SW5       30.26S
LEWISTOWN      FAIR      26  20  77 CALM      30.24S
FORT BENTON      N/A     34  27  75 SW6       30.29S WCI  29
$$

MTZ017>020-022>042-056>058-061-062-191100-
EASTERN PLAINS

CITY           SKY/WX    TMP DP  RH WIND       PRES   REMARKS
BAKER          CLEAR     32  21  64 W16       30.08R WCI  21
BILLINGS       PTCLDY    34  25  69 NW12      30.24S WCI  25
GLASGOW        CLEAR     33  23  66 W13       30.13S WCI  24
JORDAN           N/A     31  20  63 NW13      30.17F WCI  21
LIVINGSTON     CLOUDY    34  26  72 CALM      30.25F
MILES CITY     CLEAR     31  18  58 NW12      30.15S WCI  22
SIDNEY         CLEAR     37  25  60 W15       30.03F WCI  28
WOLF POINT     FAIR      32  24  72 W10       30.09F WCI  24
FORSYTH          N/A     36  21  55 W9        30.19S WCI  29
PLENTYWOOD       N/A     39  34  81 NW20G25   29.99R WCI  30
POPLAR           N/A     34  27  75 W13       30.08S WCI  25
$$

REGIONAL REPORTS...DAKOTAS

CITY           SKY/WX    TMP DP  RH WIND       PRES   REMARKS
WILLISTON      CLOUDY    40  29  64 NW17      29.98F
MINOT          CLOUDY    41  31  67 W17       29.88F
DICKINSON      CLEAR     34  26  72 W17       29.96F WCI  23
BEACH          FAIR      32  25  74 NW16G22   30.05S WCI  21
CROSBY         CLOUDY    39  32  75 NW17      29.95F WCI  30
WATFORD CITY   CLOUDY    37  27  65 W12G17    29.96F WCI  30
BISMARCK       CLOUDY    43  34  70 NW15G23   29.91R
GRAND FORKS    LGT RAIN  48  46  93 CALM      29.74F
FARGO          RAIN      51  49  92 NE3       29.73S FOG
BUFFALO SD       N/A     35  23  61 NW23      29.97S WCI  23
RAPID CITY     PTCLDY    38  28  67 NW18      30.04R WCI  28
$$

REGIONAL REPORTS...WYOMING/IDAHO/WASHINGTON

CITY           SKY/WX    TMP DP  RH WIND       PRES   REMARKS
GILLETTE       MOCLDY    34  27  75 NW16      30.13S WCI  24
SHERIDAN       PTCLDY    35  26  69 NW12      30.20S WCI  27
BUFFALO WY     CLOUDY    36  25  64 N17       30.17R WCI  26
CODY           CLEAR     30  25  80 CALM      30.23F
YELLOWSTONE LA   N/A     23  17  78 CALM      30.21S
IDAHO FALLS    CLEAR     39  26  59 N14       30.15R WCI  31
SALMON         FAIR      36  25  64 CALM      30.16S
BOISE          FAIR      46  24  42 CALM      30.09R
SPOKANE        MOCLDY    47  23  38 CALM      30.16S
$$

REGIONAL REPORTS...ALBERTA

CITY           SKY/WX    TMP DP  RH WIND       PRES   REMARKS
EDMONTON       PTCLDY    28  18  64 W7        30.25F WCI  21
CALGARY        PTCLDY    25  16  68 NW2       30.27F
LETHBRIDGE     CLEAR     25  23  93 SW6       30.27F WCI  18
MEDICINE HAT   CLEAR     25  19  80 SW7       30.26F WCI  17
$$

REGIONAL REPORTS...SASKATCHEWAN

CITY           SKY/WX    TMP DP  RH WIND       PRES   REMARKS
SWIFT CURRENT  CLOUDY    34  30  86 NW13G21   30.14R WCI  25
REGINA         CLOUDY    39  34  81 NW20G26   29.99S WCI  30
SASKATOON      MOCLDY    37  32  81 NW14      30.13R WCI  29
$$



USA.gov is the U.S. government's official web portal to all federal, state and local government web resources and services.